GFSFLT2_850_spd_000.txt.gz
Wind_Speed
13 10 8 5 3 2 2 2 3 3 5 5 7 8 8 8 7 6 9 11 13 15 16 16 16 16 15 15 14 14 12 3
8 8 8 6 7 5 4 3 3 5 5 7 9 9 16 13 9 15 16 15 15 17 17 17 18 18 15 16 16 13 8 7
9 8 8 3 5 6 5 8 8 8 9 11 11 11 11 16 18 17 18 17 21 18 19 19 16 12 15 17 17 7 7 9
10 5 5 9 3 6 9 11 9 7 5 7 6 8 6 12 15 19 18 21 20 17 19 19 16 19 14 12 12 11 18 11
9 9 5 8 4 4 4 4 4 5 5 8 4 7 7 8 12 14 18 18 14 23 17 17 19 23 19 14 13 15 10 10
11 6 5 8 5 5 3 3 1 3 5 5 5 3 5 8 7 11 9 12 14 16 16 17 18 22 23 19 15 14 12 12
16 12 6 1 6 5 7 6 3 3 2 6 6 7 9 11 12 13 12 12 12 14 17 16 17 19 19 22 21 16 16 16
18 13 8 6 6 6 5 3 1 3 1 6 6 8 11 13 15 14 13 13 15 19 19 21 23 23 20 18 22 22 20 18
19 17 13 11 6 4 7 4 1 0 3 8 10 9 10 14 16 13 13 15 19 21 19 21 22 23 24 23 22 25 26 23
13 27 12 9 6 5 4 4 2 1 4 5 10 8 11 14 15 17 18 20 23 23 24 22 24 25 26 26 28 28 28 28
5 4 9 7 8 4 4 5 2 7 8 8 11 9 10 14 18 20 24 25 25 24 26 26 24 24 28 29 30 29 29 29
7 5 8 5 5 9 4 6 5 4 5 10 12 11 13 19 21 19 19 23 23 23 25 27 30 31 31 31 32 34 34 34
8 7 10 6 5 7 8 7 6 7 6 11 14 15 18 26 24 20 20 22 21 23 26 27 28 26 30 31 32 32 31 32
9 4 9 6 7 5 5 7 7 8 6 10 12 17 23 37 29 23 19 22 23 21 21 25 27 27 29 33 36 36 31 30
9 8 10 10 8 3 2 4 5 11 19 30 25 28 35 21 19 20 23 25 26 24 24 24 27 27 25 26 32 32 33 31
8 7 5 3 1 12 16 17 15 22 32 30 28 19 18 15 17 20 22 25 26 23 24 27 30 29 27 21 22 23 18 25
6 4 3 8 14 13 12 10 19 21 17 16 16 11 15 20 22 24 26 29 31 24 26 25 23 22 22 23 25 30 34 25
4 5 6 14 11 9 19 20 17 13 13 12 13 18 24 21 24 26 26 24 23 23 22 22 23 23 28 26 26 25 24 19
9 11 13 12 17 17 11 11 11 11 13 15 20 25 18 21 21 23 22 21 20 24 24 22 24 22 24 24 24 24 28 23
13 13 14 15 15 12 12 11 11 13 16 21 20 17 20 19 18 20 19 21 22 21 21 23 23 26 21 18 26 29 23 21

GFSFLT2_850_spd_006.txt.gz
Wind_Speed
14 11 9 6 5 5 4 4 4 4 5 6 7 9 9 10 10 10 11 12 12 12 15 11 11 9 8 9 8 6 2 7
13 11 9 8 8 7 6 7 7 7 7 6 8 9 10 10 12 12 13 13 14 16 17 17 14 11 12 12 9 6 5 7
11 10 10 11 9 9 8 8 7 7 7 6 9 10 11 12 14 13 14 14 15 16 17 19 19 16 15 16 15 9 10 11
8 7 9 11 10 9 9 9 6 7 6 6 7 8 9 10 12 13 13 14 15 15 17 20 22 20 19 18 17 16 13 13
10 7 7 9 7 5 5 5 6 6 6 6 3 5 8 9 11 13 14 14 16 18 21 23 26 24 22 21 19 17 17 16
11 6 7 9 6 6 3 2 2 3 4 5 2 3 5 6 9 11 13 13 15 18 21 24 25 25 23 22 22 21 18 17
15 11 11 10 7 6 7 6 3 1 2 1 4 4 4 5 7 7 7 9 13 15 18 21 25 24 23 25 24 24 22 21
20 15 12 10 11 10 8 9 8 6 4 3 7 8 7 5 8 9 10 11 13 15 20 23 25 24 24 21 24 26 27 26
26 20 8 6 10 7 9 9 8 6 4 7 9 8 7 8 8 10 13 16 17 20 23 26 25 24 24 21 20 18 21 23
27 26 11 8 9 8 10 9 8 10 10 12 12 11 10 9 13 19 23 28 28 28 29 28 25 25 26 25 24 24 21 21
32 22 14 11 12 12 13 12 10 11 9 10 10 8 12 16 19 28 32 31 31 28 28 27 26 25 27 28 27 24 19 19
19 11 7 11 16 16 17 14 12 9 5 7 12 13 15 19 26 32 26 21 22 28 22 24 27 30 31 30 30 29 29 27
16 15 17 20 18 17 14 11 3 4 7 10 11 14 19 27 30 27 21 18 18 20 24 28 29 31 34 38 40 38 33 29
10 11 19 18 15 6 1 2 5 9 11 11 17 21 28 26 20 17 14 15 18 20 23 26 28 31 35 40 31 38 34 24
8 6 5 4 1 3 6 8 11 12 17 20 21 22 19 19 15 15 17 20 24 25 26 28 31 32 34 29 26 22 30 28
8 7 4 3 7 13 16 17 18 20 21 18 16 18 16 15 19 23 27 26 26 28 30 30 31 31 27 24 24 27 20 25
10 11 12 16 17 20 22 22 22 21 20 18 15 12 13 19 28 28 24 24 23 26 27 25 25 24 27 23 25 25 24 29
12 14 13 15 17 20 18 18 19 17 13 10 12 15 20 25 27 23 20 22 29 27 25 22 21 19 19 21 23 20 27 29
11 12 14 15 13 13 16 17 15 11 10 13 21 21 25 18 18 16 21 26 29 25 26 27 30 30 26 25 28 29 27 29
5 8 12 12 15 13 12 9 9 12 26 30 37 25 19 16 15 20 26 26 25 26 24 20 18 20 21 21 21 21 21 21

GFSFLT2_850_spd_009.txt.gz
Wind_Speed
15 12 10 9 8 7 5 4 4 6 9 10 11 11 11 12 12 12 13 13 13 14 17 17 14 12 14 15 12 12 10 9
13 10 9 8 8 8 7 8 8 9 10 11 9 10 11 11 11 13 13 13 13 13 16 20 18 16 16 16 15 14 13 12
11 11 11 11 10 10 9 9 9 10 9 9 9 8 9 10 11 12 12 12 12 13 17 19 20 20 18 17 17 17 17 16
11 10 12 12 12 11 9 8 7 7 6 6 6 6 7 9 11 11 11 11 12 15 17 19 20 22 19 17 16 15 16 17
12 11 13 12 10 10 9 7 7 5 4 3 3 3 6 8 8 9 9 10 12 14 16 19 20 23 21 19 17 16 16 17
14 13 14 12 10 9 8 7 5 5 3 1 2 4 5 4 5 6 7 8 10 12 14 16 20 22 23 22 22 18 17 17
16 15 14 13 11 10 9 7 5 4 1 1 2 3 6 5 5 5 6 10 14 15 17 19 21 24 27 27 24 21 19 17
21 18 15 13 11 10 9 9 6 6 2 2 3 5 6 6 7 9 12 17 21 23 25 21 21 26 28 26 25 23 18 15
21 17 13 10 11 10 8 10 8 6 5 6 9 10 10 10 12 13 15 19 23 27 26 25 25 27 22 22 22 23 23 22
23 21 17 8 11 10 11 10 9 8 11 13 12 10 11 10 13 16 19 25 31 31 28 26 29 24 23 22 21 21 22 22
24 22 12 16 10 7 11 11 8 8 8 8 8 8 13 15 17 20 25 31 29 29 26 24 21 23 24 26 25 25 25 28
24 19 10 10 10 12 14 11 8 6 5 6 9 12 14 16 20 26 31 28 24 20 22 21 22 24 25 27 30 32 34 33
18 12 7 9 8 12 12 6 1 4 7 11 14 14 17 23 28 26 24 19 17 18 21 23 25 29 32 35 37 28 22 26
6 6 7 8 8 5 2 6 7 12 14 13 17 23 23 25 23 22 20 18 19 22 25 27 28 29 31 33 21 29 16 22
8 6 0 5 7 8 9 9 11 14 18 20 22 21 21 19 17 18 21 23 24 25 26 27 29 28 26 22 16 12 29 24
8 5 5 6 7 10 13 14 15 17 18 20 17 18 16 16 17 22 26 26 27 24 26 28 28 27 25 21 20 22 23 24
8 7 7 10 13 14 16 16 17 18 15 13 12 13 17 19 22 31 31 21 23 26 32 28 25 21 20 24 27 23 17 21
3 2 5 9 12 14 16 16 16 14 15 13 14 23 25 34 37 24 21 24 27 29 32 26 26 25 25 22 20 21 24 24
3 4 7 11 13 17 17 15 14 16 19 24 31 29 29 27 21 20 22 21 23 22 22 23 22 19 18 18 17 18 19 20
2 4 8 9 10 11 13 15 19 22 21 25 26 29 24 20 16 13 17 22 21 19 18 20 20 19 16 17 19 18 15 15

GFSFLT2_850_spd_012.txt.gz
Wind_Speed
15 14 12 11 10 9 9 8 7 10 11 12 13 13 12 12 13 13 13 13 14 16 18 18 18 17 16 16 16 16 16 15
14 11 11 11 11 10 9 9 10 11 12 12 13 12 11 11 11 12 12 12 13 14 16 17 18 18 17 16 16 16 15 16
13 12 12 12 12 11 11 11 12 12 12 11 10 10 10 10 10 10 10 10 11 12 13 15 16 17 16 15 14 14 15 15
14 12 12 13 12 11 11 11 11 9 9 9 9 8 8 9 8 8 8 7 8 10 12 15 16 18 19 17 17 16 13 13
14 12 12 12 12 11 11 9 9 7 8 7 6 5 5 6 4 4 5 7 10 13 15 18 19 21 22 22 24 23 17 13
13 12 12 12 12 10 8 7 7 4 4 4 3 2 3 1 1 4 7 10 12 15 16 20 22 23 21 24 29 24 20 19
13 12 12 11 11 10 7 5 4 4 2 3 3 1 2 4 6 8 9 10 11 13 17 22 23 22 24 26 25 21 16 15
13 11 12 11 8 8 6 6 6 6 6 5 5 4 6 7 8 8 8 11 13 16 24 24 20 21 23 19 16 18 19 18
17 15 13 11 9 8 7 7 13 11 9 9 8 8 8 8 8 8 12 15 17 25 27 20 19 19 18 16 17 18 20 23
19 16 18 10 2 11 7 10 18 12 11 12 9 9 9 8 10 14 17 21 26 25 22 19 18 18 17 19 21 21 22 25
22 17 19 19 17 15 13 13 9 8 9 8 9 8 9 12 15 21 31 28 26 24 20 19 19 19 20 20 21 22 25 28
24 16 17 13 13 10 7 7 6 2 7 6 8 13 15 19 28 23 22 26 25 23 21 20 22 24 25 27 28 27 24 20
18 12 3 4 5 7 5 3 8 6 5 13 17 15 18 22 22 23 24 25 22 20 19 21 24 29 32 34 34 26 19 26
6 6 4 3 3 1 7 8 9 10 14 16 17 19 22 23 23 24 22 20 20 23 24 26 26 27 28 28 13 24 12 15
16 14 11 6 6 7 8 9 10 13 15 17 18 20 20 20 22 23 24 26 30 32 28 26 28 27 25 19 12 10 28 25
12 11 8 5 4 6 8 10 12 15 17 19 20 19 19 21 24 28 34 36 28 22 25 28 29 29 23 20 16 18 18 23
8 6 2 3 6 8 10 13 14 15 17 19 20 20 28 30 32 31 26 19 19 19 22 26 27 24 24 24 25 22 18 17
4 2 2 5 7 9 11 12 11 12 14 17 19 22 24 29 27 25 21 14 15 20 23 21 20 20 20 18 17 17 19 16
3 3 5 4 6 8 9 10 12 13 16 17 22 24 26 25 23 23 19 16 14 12 18 24 20 18 18 16 17 19 19 18
5 1 4 8 10 10 11 13 14 17 20 23 26 27 27 25 22 23 25 20 27 18 14 16 16 16 16 16 18 17 17 18

GFSFLT2_850_spd_015.txt.gz
Wind_Speed
18 17 15 14 13 12 11 11 11 13 13 14 14 13 13 12 11 12 13 12 13 14 14 15 16 15 16 16 17 17 16 16
16 16 15 14 13 12 11 11 12 13 14 13 14 13 12 11 10 10 11 10 10 11 12 13 15 17 18 18 16 16 16 14
15 14 14 14 13 12 11 11 13 13 12 13 12 10 9 9 8 8 8 8 9 11 12 12 14 16 18 18 19 19 19 17
14 13 14 14 12 11 11 12 12 12 10 10 9 8 7 7 6 5 5 7 9 11 12 13 16 20 21 19 19 22 22 16
14 13 13 11 10 11 11 10 10 9 8 8 7 6 5 4 2 3 4 5 7 9 11 14 19 21 21 21 24 24 21 17
13 12 12 11 11 9 8 7 6 4 5 6 5 4 4 2 1 3 4 6 7 9 10 13 20 23 21 21 22 24 21 17
13 13 12 11 9 7 6 4 5 6 4 3 4 5 4 4 5 6 6 9 10 12 13 20 23 21 20 21 22 18 18 19
14 12 11 10 8 7 4 4 7 6 6 8 10 8 7 7 8 9 10 12 14 16 21 25 23 22 20 20 17 17 18 19
14 13 12 13 11 4 1 7 11 12 15 14 12 14 8 8 10 11 12 14 19 23 23 24 23 21 19 20 18 20 21 21
15 11 14 14 11 3 13 12 16 16 17 12 11 7 6 9 10 12 16 24 23 24 26 23 19 18 18 18 20 23 25 26
18 14 15 16 19 13 16 15 13 8 5 7 8 6 8 11 14 20 24 24 24 27 23 19 19 19 20 21 22 24 27 28
18 16 18 13 17 9 5 2 2 5 7 8 7 12 16 14 18 20 20 23 22 21 20 20 22 25 27 28 29 29 27 23
11 12 5 2 5 3 5 2 4 3 4 9 12 13 15 16 17 18 19 20 21 22 24 26 28 27 27 20 22 18 15 22
7 9 10 11 9 6 5 3 1 5 8 12 14 15 16 17 18 19 21 25 27 27 26 20 19 22 21 16 14 15 12 13
18 16 14 11 9 5 1 2 5 8 13 15 16 17 17 18 21 22 25 26 24 20 14 15 14 21 23 12 11 11 21 12
19 18 15 10 6 2 3 5 8 11 13 14 14 14 17 20 22 26 27 25 19 15 16 18 18 16 18 13 15 15 17 21
16 12 9 5 3 4 6 7 7 8 8 10 13 16 21 24 26 28 27 24 21 19 17 19 19 16 21 18 13 12 12 14
12 10 8 5 3 4 5 7 8 9 11 14 17 21 25 27 27 26 26 25 23 18 16 23 23 16 15 13 11 12 14 16
11 9 5 1 4 7 9 11 14 15 17 20 24 28 29 29 26 25 23 23 18 17 24 16 12 13 15 11 12 13 14 15
10 7 3 3 7 10 11 12 14 14 19 24 27 28 28 27 26 24 22 20 19 24 15 10 13 13 14 14 15 15 20 19

GFSFLT2_850_spd_018.txt.gz
Wind_Speed
19 18 16 14 13 12 10 9 8 9 10 11 11 11 10 11 12 11 11 11 12 12 12 13 14 16 18 19 18 16 12 11
17 15 14 14 13 11 10 8 9 9 10 11 10 10 9 9 9 9 8 8 7 8 9 10 12 15 17 19 19 16 13 11
15 14 13 11 10 11 9 9 9 10 10 10 9 6 6 5 7 7 6 5 4 5 6 8 11 16 17 19 17 14 14 12
15 14 15 12 9 9 9 10 8 8 7 9 5 5 5 5 4 4 3 2 2 4 6 9 11 11 13 17 15 16 13 13
15 15 13 11 9 7 7 7 8 8 9 9 6 5 3 2 2 1 1 2 2 4 6 7 14 17 16 16 16 14 13 12
14 14 13 12 9 7 7 7 8 7 8 8 7 4 5 5 3 4 4 5 7 8 7 14 17 22 23 21 21 16 13 12
13 13 12 12 11 11 9 7 6 6 7 7 8 7 6 6 9 9 9 9 10 10 9 13 15 14 15 19 16 16 19 12
12 12 12 13 11 11 7 5 6 7 10 11 10 7 8 14 13 12 11 11 12 12 19 20 15 15 14 16 17 16 14 17
13 14 15 14 12 9 10 7 14 14 15 16 15 14 15 16 14 12 11 13 17 19 19 13 14 15 16 16 16 16 15 15
15 15 14 14 14 13 7 18 14 12 15 9 4 5 7 10 9 11 14 18 19 13 12 15 16 17 17 17 18 19 19 17
15 17 16 19 16 17 18 19 14 2 4 3 2 4 5 7 11 13 15 15 14 13 12 14 17 18 18 21 21 22 22 21
15 16 16 16 17 16 11 3 6 2 1 3 4 7 9 10 13 14 14 9 10 12 15 15 17 18 20 23 21 22 20 18
11 12 8 6 8 9 9 7 4 3 4 5 7 10 12 12 11 12 12 12 17 19 18 19 21 18 20 21 21 20 15 15
11 11 11 13 11 9 8 7 5 4 6 9 12 12 13 12 13 10 14 16 17 17 19 17 16 15 16 21 22 22 21 12
15 16 16 13 12 9 7 4 3 3 5 7 10 12 12 14 15 20 21 20 18 16 12 11 13 14 14 17 18 20 23 23
16 16 14 14 12 9 8 4 3 4 4 5 6 14 16 19 22 25 23 20 15 12 11 12 10 14 18 16 16 19 22 25
17 16 15 13 10 6 3 1 1 2 4 7 10 12 15 17 18 19 19 17 14 16 11 9 11 18 17 16 14 14 16 18
15 14 12 10 6 3 1 2 4 4 8 11 13 16 17 18 20 19 18 15 13 10 13 13 16 13 10 10 12 14 15 17
14 12 11 8 4 2 4 7 8 8 10 12 17 18 18 19 20 19 17 15 13 16 14 16 11 10 11 11 11 13 15 18
13 12 9 6 5 6 7 8 10 8 12 16 15 17 18 20 19 17 14 13 13 15 12 14 12 11 11 12 14 16 17 19

GFSFLT2_850_spd_021.txt.gz
Wind_Speed
21 19 16 14 13 12 10 9 8 8 8 10 9 9 9 8 9 9 9 10 9 9 9 9 11 14 17 21 18 17 16 11
22 17 14 14 14 12 10 8 7 8 9 9 8 7 7 6 5 3 4 6 5 5 5 7 11 16 19 21 17 18 16 11
17 14 11 9 6 10 8 7 9 8 9 9 9 6 4 5 2 2 1 2 3 4 5 9 11 15 15 20 16 14 13 13
15 18 16 12 9 9 6 7 6 6 5 6 5 4 3 5 2 2 4 4 6 8 9 10 12 10 11 14 13 16 14 14
16 17 18 12 9 8 7 7 6 5 5 5 2 1 2 4 4 6 6 9 6 9 10 8 11 12 12 13 14 15 13 13
13 13 15 11 9 9 9 7 6 4 0 0 1 3 0 3 5 6 9 8 10 9 10 12 12 13 14 14 15 15 14 13
12 13 12 12 11 11 10 9 8 7 5 6 6 7 8 4 7 10 11 10 10 11 12 12 14 15 15 16 15 16 16 14
14 13 13 13 12 12 10 7 3 4 8 8 10 10 13 28 18 12 12 10 10 10 13 15 15 16 17 17 18 18 17 17
15 15 15 15 16 15 18 13 4 10 12 14 14 18 20 10 15 16 10 9 10 11 13 13 15 18 18 18 19 18 19 19
15 15 16 15 16 18 9 23 24 14 16 13 13 10 9 9 7 5 12 9 9 10 12 14 15 17 19 20 20 21 21 22
15 15 17 17 17 12 9 14 17 12 5 3 4 4 5 2 4 6 10 8 10 12 13 15 18 21 23 22 22 24 22 22
14 17 15 17 15 12 12 10 6 6 4 4 4 1 4 1 5 11 10 9 12 13 16 17 20 23 24 22 22 20 22 20
18 16 14 9 9 9 8 9 8 8 6 6 2 3 6 9 4 8 10 11 13 16 19 20 20 20 21 21 21 23 20 16
12 11 11 9 9 10 9 8 8 8 6 2 3 5 5 4 9 9 11 14 17 18 18 19 17 16 19 21 24 24 19 15
12 12 12 12 12 11 11 10 7 5 1 0 4 4 5 8 10 12 15 16 17 18 17 15 17 17 16 18 24 23 25 23
14 16 15 12 11 10 9 5 5 4 1 2 3 7 9 11 13 15 16 17 18 17 15 15 15 17 18 20 21 22 24 29
17 15 12 11 10 8 6 5 4 2 1 4 6 8 11 12 15 16 18 18 17 16 17 15 15 18 21 20 18 18 19 22
16 14 13 12 11 10 10 8 4 1 3 5 6 10 11 12 14 16 17 18 17 16 16 15 18 18 18 16 17 17 19 20
16 15 14 13 12 10 8 7 5 1 6 6 9 9 11 13 16 17 17 17 17 17 17 18 18 16 15 17 16 16 16 17
16 15 14 13 12 11 7 6 10 3 4 6 7 10 12 15 16 17 16 15 16 20 18 18 16 14 16 15 15 15 16 18

GFSFLT2_850_spd_024.txt.gz
Wind_Speed
29 21 19 16 14 12 10 9 10 9 10 11 11 11 10 10 10 11 10 10 9 9 10 11 14 17 19 18 19 18 14 14
21 21 17 17 14 11 9 8 9 9 10 11 11 10 9 6 6 6 6 5 5 7 9 12 12 14 14 17 15 15 15 16
16 16 15 13 12 11 9 9 10 10 11 15 13 12 9 6 8 4 4 5 7 9 11 12 11 14 13 14 12 13 14 14
18 16 13 11 11 10 10 12 13 12 12 13 9 8 5 3 6 8 8 9 9 10 13 11 9 11 8 12 10 13 9 13
23 22 19 15 9 13 13 12 11 10 7 10 5 6 2 4 4 4 9 9 5 10 12 9 15 13 16 13 13 13 11 11
22 22 21 13 17 14 12 10 7 8 4 11 6 6 10 9 11 6 1 4 9 9 8 10 7 12 13 16 17 12 14 13
25 24 19 19 15 18 17 17 14 11 8 10 12 10 9 8 9 15 11 8 10 7 10 14 16 13 14 14 14 18 16 16
20 19 17 20 17 19 17 13 10 10 10 8 8 7 9 9 16 17 10 13 17 13 9 14 11 11 14 17 17 18 16 14
20 18 22 20 19 18 19 16 4 7 5 9 11 10 12 12 14 9 13 15 12 12 12 12 16 18 16 18 18 19 19 17
20 19 23 22 20 25 21 9 21 14 18 10 9 10 9 9 3 8 10 10 11 15 13 14 17 17 19 23 21 21 23 21
20 20 24 21 26 23 11 14 9 7 7 2 3 2 2 4 6 11 10 6 7 10 13 18 21 21 21 20 24 24 18 19
21 20 15 19 25 15 12 9 8 5 5 3 4 2 2 3 7 10 9 5 9 14 20 19 20 21 23 21 21 17 18 15
17 22 21 17 19 9 8 6 9 11 11 8 7 2 2 0 7 5 7 11 13 16 19 19 21 20 19 17 18 22 15 14
19 18 16 11 9 10 10 12 11 11 9 6 5 4 5 2 11 12 13 17 19 17 19 21 17 14 17 21 20 21 19 18
15 11 11 15 12 15 15 18 16 12 2 4 4 8 6 10 12 14 18 18 16 17 20 15 17 16 14 14 20 16 25 21
12 14 13 16 18 16 13 11 12 13 13 10 0 7 8 7 8 12 13 18 21 17 15 19 21 18 15 15 20 23 22 27
18 19 18 17 13 18 16 14 13 10 8 2 1 7 9 11 13 17 19 21 20 21 18 20 21 19 17 19 18 17 18 20
24 19 16 16 16 17 18 17 16 11 7 4 10 11 10 12 16 19 18 16 16 17 19 19 19 17 22 16 14 15 17 17
23 20 19 19 21 21 21 19 14 9 8 9 12 10 12 13 17 18 17 18 15 16 20 20 23 26 17 16 18 21 17 15
22 23 20 18 17 18 17 11 6 8 12 10 9 10 11 13 16 18 17 16 14 18 22 23 24 21 20 19 18 18 19 16

GFSFLT2_850_spd_030.txt.gz
Wind_Speed
29 28 26 21 16 14 15 16 18 19 18 19 22 22 21 19 17 16 15 13 13 13 11 10 10 12 14 10 10 13 11 13
30 29 29 29 17 15 15 16 17 18 19 20 20 19 18 16 14 12 11 11 10 10 7 7 7 9 13 10 11 10 14 12
23 35 23 19 18 16 16 17 19 19 19 19 19 18 15 13 12 11 9 8 9 8 5 3 3 6 13 13 12 14 17 13
16 30 23 20 18 18 17 18 20 20 19 18 17 16 15 13 14 12 8 7 6 4 4 1 3 5 8 10 13 13 13 11
30 24 22 20 18 18 19 21 22 20 16 14 14 13 13 11 11 9 7 5 6 3 4 3 2 4 8 9 9 11 12 12
27 23 21 19 19 20 21 23 22 20 19 15 12 10 11 9 10 8 6 3 3 6 5 5 7 10 12 14 11 14 15 16
26 24 23 23 23 21 21 23 22 18 15 13 12 13 9 9 10 8 5 5 6 7 9 10 14 13 13 9 10 14 17 19
28 25 25 25 24 22 22 21 19 15 15 14 13 11 11 11 11 10 12 11 9 11 12 13 13 14 14 15 18 17 17 15
26 27 28 25 23 21 17 15 18 16 14 13 13 12 11 12 12 11 9 8 9 9 11 12 14 16 17 20 17 14 13 17
28 29 26 23 22 21 21 21 17 15 13 10 10 13 15 13 14 10 5 7 10 13 15 17 19 19 21 19 16 15 15 17
34 30 27 26 27 25 24 21 16 11 8 8 11 16 15 11 9 7 7 10 14 15 17 19 20 22 20 20 18 10 8 9
35 32 30 30 28 27 27 22 14 9 8 8 11 12 10 9 7 7 10 13 14 16 18 20 22 22 21 20 14 11 15 14
34 31 33 30 29 30 29 23 13 15 13 12 11 11 9 8 9 11 13 14 17 20 21 20 20 21 19 19 20 8 10 10
31 31 30 28 26 27 27 23 17 14 12 12 12 11 10 11 11 12 14 18 20 19 19 20 20 19 17 18 5 18 4 9
27 25 23 27 26 28 30 22 18 19 17 15 14 14 15 13 11 13 19 19 18 19 21 20 18 18 19 15 9 6 19 11
28 26 27 29 27 34 36 29 26 23 20 19 19 18 14 11 13 18 20 17 18 19 21 20 19 17 17 19 18 19 20 14
24 27 26 26 26 35 33 29 25 23 25 24 22 18 15 13 17 20 17 18 18 18 17 17 16 16 18 18 19 21 24 22
28 17 22 26 29 32 31 30 29 31 29 25 20 16 14 16 17 17 18 17 17 17 16 14 13 15 17 20 21 22 17 18
23 19 26 29 29 28 30 31 34 35 30 24 19 19 18 18 17 14 14 15 15 15 15 15 16 19 21 17 18 17 19 21
25 23 26 25 26 28 29 31 30 27 24 22 20 17 13 10 11 15 15 15 16 16 15 15 17 18 21 20 18 20 23 25

GFSFLT2_850_spd_033.txt.gz
Wind_Speed
25 28 29 27 23 21 21 17 17 18 21 23 24 23 23 21 20 18 16 13 11 10 10 8 9 11 10 9 9 8 13 12
33 33 30 25 22 16 9 13 17 18 20 22 22 21 20 18 16 15 14 10 9 7 7 6 6 8 10 10 11 12 13 11
36 33 34 30 24 17 16 17 17 19 21 21 20 18 17 16 14 12 10 8 6 3 3 3 4 5 9 11 14 14 12 12
28 25 34 25 22 19 18 20 20 20 21 19 18 16 16 14 12 10 9 7 3 1 1 3 4 7 9 9 11 11 12 13
35 34 23 21 19 19 19 20 20 20 20 18 19 17 15 14 12 8 7 5 2 2 5 5 5 7 9 10 12 12 13 13
32 19 19 18 17 18 20 22 22 21 19 19 17 15 13 11 9 6 5 4 3 6 6 5 7 9 11 11 13 14 15 17
28 19 20 18 18 20 22 24 23 21 19 16 14 13 11 9 8 7 6 4 6 8 8 8 10 10 11 12 13 15 18 18
24 22 20 21 21 21 23 24 21 18 17 13 10 9 8 8 8 10 9 8 8 9 9 10 10 11 12 13 15 18 18 15
27 24 23 23 25 23 23 22 19 17 15 12 9 11 13 11 12 13 10 8 9 8 7 9 11 13 14 17 18 16 17 18
27 24 25 26 25 23 22 21 20 17 16 13 14 15 15 15 13 12 9 9 9 8 9 12 15 17 18 18 17 16 14 16
27 26 26 26 23 21 21 22 20 20 16 15 17 18 19 16 14 12 10 9 8 10 13 16 17 18 18 18 16 13 14 15
27 28 28 27 24 26 24 23 22 21 18 14 12 13 15 14 11 11 9 7 10 15 18 18 19 20 19 18 16 16 17 15
31 31 31 30 30 31 29 28 24 19 14 9 10 11 11 12 12 10 8 10 15 17 19 20 22 21 22 20 19 11 9 11
36 34 31 32 32 31 31 28 25 17 11 12 13 13 12 11 11 10 11 14 17 22 24 24 23 22 20 20 6 11 16 11
36 37 35 35 34 33 31 29 23 20 17 17 15 13 13 12 12 12 13 16 19 24 25 24 22 21 18 12 7 4 16 14
37 39 35 35 35 35 34 34 32 27 20 19 16 17 15 13 14 14 15 16 21 24 23 22 21 18 15 14 13 15 14 12
39 39 38 35 37 36 34 34 31 25 22 21 20 19 16 16 15 14 14 18 22 21 20 20 17 14 12 11 13 16 19 23
39 40 30 33 34 32 35 33 29 27 26 25 23 20 19 18 17 15 14 18 20 22 20 17 16 14 14 16 17 18 18 19
41 32 33 31 29 32 29 32 29 28 27 28 27 25 22 20 16 15 21 17 22 19 17 16 15 15 15 16 17 17 18 20
39 28 27 25 30 30 27 29 31 31 31 32 29 26 21 16 13 21 16 15 15 15 16 15 15 14 15 17 18 21 21 21

GFSFLT2_850_spd_036.txt.gz
Wind_Speed
28 31 31 28 21 21 22 23 22 22 25 27 28 26 24 22 20 18 16 14 12 10 10 10 11 11 12 12 11 12 12 13
32 25 35 26 20 20 20 20 20 19 24 26 26 24 22 20 16 13 12 10 10 8 7 7 8 9 10 9 12 12 13 14
37 43 38 24 23 21 18 13 16 21 23 24 24 22 19 17 14 11 9 7 6 5 4 5 7 8 10 12 11 12 12 13
29 33 33 28 23 16 14 17 19 22 23 23 21 19 17 16 13 10 7 5 3 3 2 3 6 8 10 9 9 9 10 13
42 41 32 35 30 22 20 20 21 23 22 21 19 19 16 13 11 8 6 4 2 2 7 6 6 7 7 7 10 12 13 14
27 26 33 27 23 22 20 20 21 22 21 20 18 17 14 12 10 6 5 3 2 5 6 4 6 7 9 11 14 15 18 19
43 35 27 22 20 19 21 22 22 22 20 19 16 14 12 10 8 7 6 5 5 5 5 6 8 10 11 13 14 17 19 21
22 21 21 20 19 20 22 22 23 21 18 15 13 12 10 9 9 9 9 7 7 7 7 8 7 10 13 15 18 20 20 17
22 18 18 18 17 18 21 22 21 19 17 15 12 10 10 10 11 11 11 9 8 7 6 8 9 13 16 18 18 17 15 13
22 21 20 19 18 19 21 23 20 16 15 15 12 10 11 14 15 14 12 10 7 6 7 9 12 16 17 16 15 14 14 14
23 22 20 20 21 21 19 21 20 17 17 15 12 13 16 18 16 14 12 8 6 7 9 12 15 14 15 15 15 14 15 14
24 23 21 21 21 21 22 22 21 20 20 15 14 17 19 19 16 13 10 7 8 9 11 12 13 15 16 14 16 16 13 11
27 27 26 25 26 27 25 24 24 23 17 15 16 16 16 16 14 12 9 9 9 8 10 11 14 17 17 19 16 9 8 9
30 30 29 27 27 26 25 23 23 19 19 18 15 13 13 14 14 12 12 10 8 10 13 15 18 20 19 19 9 12 7 11
33 32 29 29 28 28 27 26 25 25 24 20 15 15 16 17 16 14 12 9 9 13 16 18 21 22 21 16 7 4 21 12
34 33 32 31 30 30 31 31 32 31 27 21 19 19 19 17 15 14 12 10 11 14 17 22 28 24 19 16 14 14 11 13
33 33 31 34 32 32 33 34 34 32 25 24 23 22 20 17 17 16 15 12 13 19 22 32 26 20 18 16 14 13 16 20
35 35 33 35 35 36 36 37 37 32 27 28 26 24 20 20 20 18 14 13 17 24 30 24 20 19 17 15 15 14 14 15
39 36 34 38 39 38 38 40 38 31 28 29 28 27 24 25 23 21 18 16 26 27 18 18 18 16 15 14 13 13 16 19
41 39 24 36 42 40 39 41 37 31 28 32 30 28 27 26 26 21 18 26 27 17 16 16 14 14 14 13 14 16 17 18

GFSFLT2_850_spd_042.txt.gz
Wind_Speed
34 33 30 28 31 32 30 32 34 34 32 31 29 28 27 25 24 22 20 19 17 17 14 12 12 11 12 12 13 13 11 11
37 37 36 34 26 28 29 31 34 33 31 29 27 26 25 23 21 19 17 15 13 12 11 9 8 8 11 12 12 15 9 9
36 38 36 35 30 26 28 29 32 34 32 28 26 23 21 19 17 16 15 13 11 9 8 7 6 7 10 11 13 7 8 8
41 41 44 34 25 22 25 28 31 34 30 29 20 20 16 17 16 14 12 10 8 6 5 5 6 5 7 9 6 8 7 7
43 51 46 39 34 21 26 28 31 31 32 27 21 20 20 15 15 13 11 8 7 5 3 2 1 3 5 6 9 8 7 7
43 42 41 42 37 33 26 28 25 28 26 22 23 18 18 15 11 12 10 9 6 3 2 1 1 4 7 10 11 9 7 7
41 45 45 47 41 32 27 25 28 26 23 25 19 16 17 13 13 10 9 7 7 3 2 2 4 6 7 10 13 13 12 7
37 42 39 35 37 32 19 23 27 23 19 23 21 17 15 14 12 10 9 9 7 3 3 3 3 4 8 11 12 11 11 8
37 38 37 25 25 23 20 20 19 20 22 21 19 17 15 14 13 12 12 9 7 7 7 7 3 5 9 11 10 10 9 9
24 27 31 21 18 17 16 17 19 19 20 21 19 16 16 16 14 13 12 10 9 9 8 5 4 5 6 7 6 8 10 8
24 31 26 17 16 17 19 20 20 17 22 21 20 18 17 16 15 13 13 12 12 11 10 6 3 2 4 5 7 5 6 4
26 27 21 18 16 17 16 18 17 18 21 22 20 19 18 17 16 15 15 16 14 13 12 8 4 5 5 6 8 6 5 5
25 24 21 19 18 17 16 17 18 19 20 20 20 20 18 16 18 18 18 16 15 15 11 7 4 6 8 9 10 8 7 7
28 27 24 21 17 18 16 17 17 17 20 22 21 21 20 18 20 19 19 18 18 15 11 7 5 7 6 9 10 11 8 9
27 25 23 21 19 16 16 16 17 18 24 25 25 25 22 21 20 21 21 20 19 17 14 11 6 8 11 7 8 13 10 11
25 24 23 23 23 20 22 21 19 20 23 25 24 25 23 24 23 23 23 23 21 19 18 16 9 15 19 15 12 10 9 10
26 26 26 25 24 24 22 22 19 18 19 22 25 25 27 26 25 25 25 23 23 22 21 15 15 18 16 7 10 10 10 10
28 29 29 27 24 23 27 25 23 28 28 28 28 27 27 28 26 26 26 25 25 24 19 17 17 13 9 10 11 12 11 13
30 31 32 32 25 25 27 26 30 34 30 31 30 31 31 29 29 28 28 28 25 22 19 17 14 10 11 10 11 11 11 11
30 32 33 33 30 24 24 30 33 36 29 30 30 31 30 27 29 30 28 27 25 21 17 18 12 11 10 10 11 11 11 11

GFSFLT2_850_spd_048.txt.gz
Wind_Speed
28 25 24 24 23 23 23 25 28 29 32 32 30 29 27 25 24 23 22 20 18 16 15 16 16 17 20 20 20 16 9 7
31 28 24 19 16 19 25 28 29 30 31 30 29 27 26 25 23 22 20 19 15 14 13 13 14 16 18 19 16 15 11 2
32 31 29 31 20 17 20 24 25 28 29 28 28 26 25 23 22 20 18 15 13 13 11 10 13 15 15 14 12 11 6 5
31 31 31 34 37 27 21 21 25 26 27 28 27 26 22 22 19 17 15 13 11 11 13 13 10 11 12 7 10 10 3 6
34 34 36 39 38 42 32 29 28 28 28 28 26 21 15 17 17 15 13 11 9 10 12 9 6 8 4 2 8 6 2 7
33 29 30 36 36 36 38 35 30 30 25 24 18 16 13 16 15 14 12 9 9 8 7 8 8 5 1 2 4 1 5 5
35 39 43 42 43 43 34 34 32 26 24 22 19 14 13 9 8 6 6 6 5 7 10 6 5 4 2 2 5 7 4 2
37 40 40 41 39 33 35 28 29 25 24 28 20 13 16 13 14 10 9 15 11 11 5 4 3 3 4 2 3 3 1 5
33 36 35 40 42 40 36 30 31 34 26 18 20 12 17 14 17 13 18 13 13 10 12 6 9 4 9 5 4 5 5 6
38 38 39 41 37 31 34 36 35 28 21 17 22 21 15 15 13 18 15 16 18 15 13 10 8 8 9 7 6 7 10 9
28 28 34 36 26 30 39 31 17 20 16 22 21 23 16 20 17 17 19 19 14 11 9 11 11 12 10 10 12 10 12 5
24 30 31 35 36 34 19 17 19 19 23 21 20 21 24 21 20 19 20 16 14 16 15 15 14 11 10 11 15 15 14 12
29 34 38 38 42 42 26 24 24 26 24 20 23 21 23 24 20 21 19 17 16 17 18 18 19 20 18 14 12 16 18 18
31 32 32 32 33 30 26 24 22 23 23 22 22 23 23 22 22 21 21 18 20 21 21 21 17 17 14 11 10 8 18 16
25 24 30 30 25 25 25 20 20 22 24 25 29 29 23 23 20 22 22 19 22 23 23 20 17 20 17 13 6 5 12 14
31 32 29 28 23 23 23 26 24 25 25 25 23 22 27 23 22 22 24 24 23 26 23 21 22 18 19 17 13 12 7 6
33 33 30 29 27 28 23 25 20 24 26 26 29 25 24 25 24 24 29 27 25 26 23 20 22 25 21 20 12 10 11 11
36 36 36 35 31 27 26 26 23 22 23 25 27 21 18 25 26 26 30 29 25 26 26 25 28 26 20 17 13 9 10 11
39 39 37 34 31 28 26 24 21 27 27 23 23 16 18 28 22 26 31 28 26 27 29 30 29 23 20 18 14 11 16 17
40 40 38 36 36 32 30 27 29 31 30 33 30 28 25 33 32 28 29 30 28 30 31 29 25 23 20 18 18 21 21 18